08-03-2023, 00:00:04,    131,    0.0,   -1.3,   0.00,   0.00,  996.1,   81.5, -999.0
08-03-2023, 00:00:14,    131,    0.0,   -1.3,   0.00,   0.00,  996.1,   81.4, -999.0
08-03-2023, 00:00:24,    131,    0.0,   -1.3,   0.00,   0.00,  996.1,   81.5, -999.0
08-03-2023, 00:00:34,    131,    0.0,   -1.3,   0.00,   0.00,  996.1,   81.5, -999.0
08-03-2023, 00:00:44,    131,    0.0,   -1.4,   0.00,   0.00,  996.1,   81.5, -999.0
08-03-2023, 00:00:54,    131,    0.0,   -1.4,   0.00,   0.00,  996.1,   81.6, -999.0
08-03-2023, 00:01:04,    131,    0.0,   -1.6,   0.00,   0.00,  996.1,   81.7, -999.0
08-03-2023, 00:01:14,    131,    0.0,   -1.4,   0.00,   0.00,  996.1,   81.7, -999.0
08-03-2023, 00:01:24,    131,    0.0,   -1.5,   0.00,   0.00,  996.1,   81.7, -999.0
08-03-2023, 00:01:34,    131,    0.0,   -1.5,   0.00,   0.00,  996.1,   81.9, -999.0
08-03-2023, 00:01:44,    131,    0.0,   -1.5,   0.00,   0.00,  996.1,   82.0, -999.0
08-03-2023, 00:01:54,    130,    0.0,   -1.5,   0.00,   0.00,  996.0,   82.2, -999.0
08-03-2023, 00:02:04,    131,    0.0,   -1.5,   0.00,   0.00,  996.0,   82.2, -999.0
08-03-2023, 00:02:14,    131,    0.0,   -1.6,   0.00,   0.00,  996.0,   82.3, -999.0
08-03-2023, 00:02:24,    131,    0.0,   -1.7,   0.00,   0.00,  996.0,   82.4, -999.0
08-03-2023, 00:02:34,    131,    0.0,   -1.5,   0.00,   0.00,  996.0,   82.5, -999.0
08-03-2023, 00:02:44,    131,    0.0,   -1.5,   0.00,   0.00,  996.0,   82.6, -999.0
08-03-2023, 00:02:54,    131,    0.0,   -1.5,   0.00,   0.00,  996.0,   82.7, -999.0
08-03-2023, 00:03:04,    131,    0.0,   -1.5,   0.00,   0.00,  996.0,   82.8, -999.0
08-03-2023, 00:03:14,    131,    0.0,   -1.5,   0.00,   0.00,  996.0,   82.8, -999.0
08-03-2023, 00:03:24,    131,    0.0,   -1.6,   0.00,   0.00,  996.0,   82.9, -999.0
08-03-2023, 00:03:34,    131,    0.0,   -1.6,   0.00,   0.00,  996.0,   83.1, -999.0
08-03-2023, 00:03:44,    131,    0.0,   -1.6,   0.00,   0.00,  996.0,   83.2, -999.0
08-03-2023, 00:03:54,    131,    0.0,   -1.7,   0.00,   0.00,  996.0,   83.3, -999.0
08-03-2023, 00:04:04,    131,    0.0,   -1.7,   0.00,   0.00,  996.0,   83.4, -999.0
08-03-2023, 00:04:14,    131,    0.0,   -1.6,   0.00,   0.00,  996.0,   83.5, -999.0
08-03-2023, 00:04:24,    131,    0.0,   -1.7,   0.00,   0.00,  996.0,   83.7, -999.0
08-03-2023, 00:04:34,    131,    0.0,   -1.7,   0.00,   0.00,  996.0,   83.7, -999.0
08-03-2023, 00:04:44,    131,    0.0,   -1.7,   0.00,   0.00,  996.0,   83.8, -999.0
08-03-2023, 00:04:54,    131,    0.0,   -1.7,   0.00,   0.00,  996.0,   84.1, -999.0
08-03-2023, 00:05:04,    130,    0.0,   -1.8,   0.00,   0.00,  996.0,   84.3, -999.0
08-03-2023, 00:05:14,    130,    0.0,   -1.7,   0.00,   0.00,  996.0,   84.5, -999.0
08-03-2023, 00:05:24,    130,    0.0,   -1.6,   0.00,   0.00,  996.0,   84.6, -999.0
08-03-2023, 00:05:34,    131,    0.0,   -1.6,   0.00,   0.00,  996.0,   84.9, -999.0
08-03-2023, 00:05:44,    131,    0.0,   -1.6,   0.00,   0.00,  996.0,   85.1, -999.0
08-03-2023, 00:05:53,    130,    0.0,   -1.6,   0.00,   0.00,  995.9,   85.2, -999.0
08-03-2023, 00:06:04,    131,    0.0,   -1.7,   0.00,   0.00,  996.0,   85.3, -999.0
08-03-2023, 00:06:14,    131,    0.0,   -1.7,   0.00,   0.00,  996.0,   85.3, -999.0
08-03-2023, 00:06:24,    131,    0.0,   -1.7,   0.00,   0.00,  996.0,   85.4, -999.0
08-03-2023, 00:06:33,    131,    0.0,   -1.7,   0.00,   0.00,  996.0,   85.4, -999.0
08-03-2023, 00:06:44,    131,    0.0,   -1.7,   0.00,   0.00,  996.0,   85.4, -999.0
08-03-2023, 00:06:54,    131,    0.0,   -1.6,   0.00,   0.00,  996.0,   85.4, -999.0
08-03-2023, 00:07:03,    131,    0.0,   -1.7,   0.00,   0.00,  996.0,   85.5, -999.0
08-03-2023, 00:07:13,    131,    0.0,   -1.7,   0.00,   0.00,  995.9,   85.7, -999.0
08-03-2023, 00:07:24,    131,    0.0,   -1.7,   0.00,   0.00,  996.0,   85.8, -999.0
08-03-2023, 00:07:34,    131,    0.0,   -1.8,   0.00,   0.00,  996.0,   85.9, -999.0
08-03-2023, 00:07:43,    131,    0.0,   -1.8,   0.00,   0.00,  995.9,   86.0, -999.0
08-03-2023, 00:07:54,    131,    0.0,   -1.7,   0.00,   0.00,  995.9,   86.1, -999.0
08-03-2023, 00:08:04,    131,    0.0,   -1.7,   0.00,   0.00,  995.9,   86.3, -999.0
08-03-2023, 00:08:13,    131,    0.0,   -1.7,   0.00,   0.00,  995.9,   86.3, -999.0
08-03-2023, 00:08:23,    130,    0.0,   -1.8,   0.00,   0.00,  995.9,   86.4, -999.0
08-03-2023, 00:08:34,    131,    0.0,   -1.8,   0.00,   0.00,  995.9,   86.4, -999.0
08-03-2023, 00:08:43,    131,    0.0,   -1.8,   0.00,   0.00,  995.9,   86.6, -999.0
08-03-2023, 00:08:53,    131,    0.0,   -1.8,   0.00,   0.00,  995.9,   86.7, -999.0
08-03-2023, 00:09:03,    131,    0.0,   -1.9,   0.00,   0.00,  995.9,   86.9, -999.0
08-03-2023, 00:09:14,    131,    0.0,   -1.8,   0.00,   0.00,  995.9,   87.0, -999.0
08-03-2023, 00:09:23,    130,    0.0,   -1.8,   0.00,   0.00,  995.9,   87.2, -999.0
08-03-2023, 00:09:33,    131,    0.0,   -1.8,   0.00,   0.00,  995.9,   87.3, -999.0
08-03-2023, 00:09:43,    131,    0.0,   -1.7,   0.00,   0.00,  995.9,   87.3, -999.0
08-03-2023, 00:09:53,    130,    0.0,   -1.8,   0.00,   0.00,  995.9,   87.3, -999.0
08-03-2023, 00:10:03,    131,    0.0,   -1.8,   0.00,   0.00,  995.9,   87.4, -999.0
08-03-2023, 00:10:13,    131,    0.0,   -1.8,   0.00,   0.00,  995.9,   87.4, -999.0
08-03-2023, 00:10:23,    131,    0.0,   -1.8,   0.00,   0.00,  995.9,   87.6, -999.0
08-03-2023, 00:10:33,    131,    0.0,   -1.8,   0.00,   0.00,  995.9,   87.7, -999.0
08-03-2023, 00:10:43,    131,    0.0,   -1.8,   0.00,   0.00,  995.9,   88.0, -999.0
08-03-2023, 00:10:53,    131,    0.0,   -1.8,   0.00,   0.00,  995.9,   88.2, -999.0
08-03-2023, 00:11:03,    131,    0.0,   -1.9,   0.00,   0.00,  995.9,   88.3, -999.0
08-03-2023, 00:11:13,    131,    0.0,   -1.9,   0.00,   0.00,  995.9,   88.6, -999.0
08-03-2023, 00:11:23,    131,    0.0,   -1.8,   0.00,   0.00,  995.9,   88.7, -999.0
08-03-2023, 00:11:33,    131,    0.0,   -1.8,   0.00,   0.00,  995.9,   88.9, -999.0
08-03-2023, 00:11:43,    131,    0.0,   -1.8,   0.00,   0.00,  995.9,   89.1, -999.0
08-03-2023, 00:11:53,    131,    0.0,   -1.8,   0.00,   0.00,  995.9,   89.2, -999.0
08-03-2023, 00:12:03,    130,    0.0,   -1.8,   0.00,   0.00,  995.9,   89.3, -999.0
08-03-2023, 00:12:13,    131,    0.0,   -1.8,   0.00,   0.00,  995.9,   89.5, -999.0
08-03-2023, 00:12:23,    130,    0.0,   -1.8,   0.00,   0.00,  995.9,   89.6, -999.0
08-03-2023, 00:12:33,    131,    0.0,   -1.8,   0.00,   0.00,  995.9,   89.8, -999.0
08-03-2023, 00:12:43,    130,    0.0,   -1.9,   0.00,   0.00,  995.9,   90.1, -999.0
08-03-2023, 00:12:53,    131,    0.0,   -1.9,   0.00,   0.00,  995.9,   90.2, -999.0
08-03-2023, 00:13:03,    130,    0.0,   -1.9,   0.00,   0.00,  995.9,   90.3, -999.0
08-03-2023, 00:13:13,    131,    0.0,   -1.8,   0.00,   0.00,  995.9,   90.6, -999.0
08-03-2023, 00:13:23,    130,    0.0,   -1.9,   0.00,   0.00,  995.9,   90.7, -999.0
08-03-2023, 00:13:33,    131,    0.0,   -1.9,   0.00,   0.00,  995.9,   90.9, -999.0
08-03-2023, 00:13:43,    131,    0.0,   -1.9,   0.00,   0.00,  995.9,   91.2, -999.0
08-03-2023, 00:13:53,    131,    0.0,   -1.9,   0.00,   0.00,  995.9,   91.4, -999.0
08-03-2023, 00:14:03,    131,    0.0,   -1.8,   0.00,   0.00,  995.9,   91.8, -999.0
08-03-2023, 00:14:13,    131,    0.0,   -1.9,   0.00,   0.00,  995.9,   92.1, -999.0
08-03-2023, 00:14:23,    131,    0.0,   -1.8,   0.00,   0.00,  995.9,   92.4, -999.0
08-03-2023, 00:14:33,    131,    0.0,   -1.8,   0.00,   0.00,  995.9,   92.6, -999.0
08-03-2023, 00:14:43,    131,    0.0,   -1.9,   0.00,   0.00,  995.9,   92.8, -999.0
08-03-2023, 00:14:53,    131,    0.0,   -1.9,   0.00,   0.00,  995.9,   93.0, -999.0
08-03-2023, 00:15:03,    131,    0.0,   -1.8,   0.00,   0.00,  995.9,   93.1, -999.0
08-03-2023, 00:15:13,    131,    0.0,   -1.8,   0.00,   0.00,  995.9,   93.5, -999.0
08-03-2023, 00:15:23,    131,    0.0,   -1.8,   0.00,   0.00,  995.9,   94.1, -999.0
08-03-2023, 00:15:33,    130,    0.0,   -1.8,   0.00,   0.00,  995.9,   94.7, -999.0
08-03-2023, 00:15:44,    130,    0.0,   -1.8,   0.00,   0.00,  995.9,   95.2, -999.0
08-03-2023, 00:15:53,    131,    0.0,   -1.8,   0.00,   0.00,  995.9,   95.4, -999.0
08-03-2023, 00:16:03,    131,    0.0,   -1.8,   0.00,   0.00,  995.9,   95.9, -999.0
08-03-2023, 00:16:13,    131,    0.0,   -1.7,   0.00,   0.00,  995.9,   96.3, -999.0
08-03-2023, 00:16:23,    130,    0.0,   -1.8,   0.00,   0.00,  995.9,   96.9, -999.0
08-03-2023, 00:16:33,    131,    0.0,   -1.8,   0.00,   0.00,  995.9,   97.7, -999.0
08-03-2023, 00:16:43,    131,    0.0,   -1.7,   0.00,   0.00,  995.9,   98.4, -999.0
08-03-2023, 00:16:53,    131,    0.0,   -1.8,   0.00,   0.00,  995.9,   98.7, -999.0
08-03-2023, 00:17:03,    131,    0.0,   -1.7,   0.00,   0.00,  995.9,   98.6, -999.0
08-03-2023, 00:17:13,    131,    0.0,   -1.8,   0.00,   0.00,  995.9,   98.7, -999.0
08-03-2023, 00:17:22,    131,    0.0,   -1.8,   0.00,   0.00,  995.9,   98.6, -999.0
08-03-2023, 00:17:33,    131,    0.0,   -1.9,   0.00,   0.00,  995.9,   98.6, -999.0
08-03-2023, 00:17:43,    131,    0.0,   -1.8,   0.00,   0.00,  995.9,   98.6, -999.0
08-03-2023, 00:17:53,    131,    0.0,   -1.8,   0.00,   0.00,  995.9,   98.6, -999.0
08-03-2023, 00:18:03,    131,    0.0,   -1.8,   0.00,   0.00,  995.9,   98.7, -999.0
08-03-2023, 00:18:13,    131,    0.0,   -1.7,   0.00,   0.00,  995.9,   98.7, -999.0
08-03-2023, 00:18:23,    131,    0.0,   -1.7,   0.00,   0.00,  995.9,   98.6, -999.0
08-03-2023, 00:18:32,    131,    0.0,   -1.7,   0.00,   0.00,  995.8,   98.6, -999.0
08-03-2023, 00:18:43,    131,    0.0,   -1.8,   0.00,   0.00,  995.9,   98.6, -999.0
08-03-2023, 00:18:53,    131,    0.0,   -1.8,   0.00,   0.00,  995.9,   98.6, -999.0
08-03-2023, 00:19:02,    131,    0.0,   -1.8,   0.00,   0.00,  995.8,   98.7, -999.0
08-03-2023, 00:19:12,    130,    0.0,   -1.8,   0.00,   0.00,  995.9,   98.7, -999.0
08-03-2023, 00:19:23,    131,    0.0,   -1.8,   0.00,   0.00,  995.8,   98.6, -999.0
08-03-2023, 00:19:33,    131,    0.0,   -1.7,   0.00,   0.00,  995.8,   98.7, -999.0
08-03-2023, 00:19:42,    131,    0.0,   -1.7,   0.00,   0.00,  995.8,   98.7, -999.0
08-03-2023, 00:19:52,    131,    0.0,   -1.6,   0.00,   0.00,  995.8,   98.6, -999.0
08-03-2023, 00:20:03,    131,    0.0,   -1.5,   0.00,   0.00,  995.8,   98.6, -999.0
08-03-2023, 00:20:12,    131,    0.0,   -1.5,   0.00,   0.00,  995.8,   98.6, -999.0
08-03-2023, 00:20:22,    131,    0.0,   -1.6,   0.00,   0.00,  995.8,   98.6, -999.0
08-03-2023, 00:20:33,    131,    0.0,   -1.6,   0.00,   0.00,  995.8,   98.6, -999.0
08-03-2023, 00:20:43,    131,    0.0,   -1.6,   0.00,   0.00,  995.8,   98.7, -999.0
08-03-2023, 00:20:52,    131,    0.0,   -1.7,   0.00,   0.00,  995.8,   98.7, -999.0
08-03-2023, 00:21:02,    131,    0.0,   -1.8,   0.00,   0.00,  995.9,   98.7, -999.0
08-03-2023, 00:21:13,    130,    0.0,   -1.6,   0.00,   0.00,  995.8,   98.6, -999.0
08-03-2023, 00:21:22,    131,    0.0,   -1.6,   0.00,   0.00,  995.8,   98.6, -999.0
08-03-2023, 00:21:32,    131,    0.0,   -1.7,   0.00,   0.00,  995.8,   98.6, -999.0
08-03-2023, 00:21:42,    131,    0.0,   -1.6,   0.00,   0.00,  995.8,   98.6, -999.0
08-03-2023, 00:21:53,    131,    0.0,   -1.7,   0.00,   0.00,  995.8,   98.6, -999.0
08-03-2023, 00:22:02,    131,    0.0,   -1.7,   0.00,   0.00,  995.8,   98.7, -999.0
08-03-2023, 00:22:12,    131,    0.0,   -1.7,   0.00,   0.00,  995.8,   98.7, -999.0
08-03-2023, 00:22:22,    131,    0.0,   -1.6,   0.00,   0.00,  995.8,   98.7, -999.0
08-03-2023, 00:22:32,    131,    0.0,   -1.7,   0.00,   0.00,  995.8,   98.6, -999.0
08-03-2023, 00:22:42,    131,    0.0,   -1.8,   0.00,   0.00,  995.8,   98.6, -999.0
08-03-2023, 00:22:52,    131,    0.0,   -1.7,   0.00,   0.00,  995.8,   98.6, -999.0
08-03-2023, 00:23:02,    131,    0.0,   -1.8,   0.00,   0.00,  995.8,   98.7, -999.0
08-03-2023, 00:23:12,    131,    0.0,   -1.8,   0.00,   0.00,  995.8,   98.6, -999.0
08-03-2023, 00:23:22,    130,    0.0,   -1.8,   0.00,   0.00,  995.8,   98.7, -999.0
08-03-2023, 00:23:32,    131,    0.0,   -1.8,   0.00,   0.00,  995.8,   98.6, -999.0
08-03-2023, 00:23:42,    131,    0.0,   -1.8,   0.00,   0.00,  995.7,   98.7, -999.0
08-03-2023, 00:23:52,    131,    0.0,   -1.8,   0.00,   0.00,  995.7,   98.6, -999.0
08-03-2023, 00:24:02,    131,    0.0,   -1.8,   0.00,   0.00,  995.7,   98.7, -999.0
08-03-2023, 00:24:12,    131,    0.0,   -1.8,   0.00,   0.00,  995.8,   98.7, -999.0
08-03-2023, 00:24:22,    131,    0.0,   -1.9,   0.00,   0.00,  995.8,   98.6, -999.0
08-03-2023, 00:24:32,    131,    0.0,   -1.9,   0.00,   0.00,  995.7,   98.7, -999.0
08-03-2023, 00:24:42,    131,    0.0,   -1.9,   0.00,   0.00,  995.7,   98.7, -999.0
08-03-2023, 00:24:52,    131,    0.0,   -2.0,   0.00,   0.00,  995.7,   98.6, -999.0
08-03-2023, 00:25:02,    131,    0.0,   -2.0,   0.00,   0.00,  995.8,   98.7, -999.0
08-03-2023, 00:25:12,    130,    0.0,   -2.0,   0.00,   0.00,  995.8,   98.6, -999.0
08-03-2023, 00:25:22,    131,    0.0,   -2.1,   0.00,   0.00,  995.8,   98.7, -999.0
08-03-2023, 00:25:32,    131,    0.0,   -2.0,   0.00,   0.00,  995.8,   98.6, -999.0
08-03-2023, 00:25:42,    131,    0.0,   -2.1,   0.00,   0.00,  995.7,   98.6, -999.0
08-03-2023, 00:25:52,    131,    0.0,   -2.0,   0.00,   0.00,  995.7,   98.6, -999.0
08-03-2023, 00:26:02,    131,    0.0,   -2.0,   0.00,   0.00,  995.7,   98.6, -999.0
08-03-2023, 00:26:12,    130,    0.0,   -2.1,   0.00,   0.00,  995.7,   98.7, -999.0
08-03-2023, 00:26:22,    131,    0.0,   -2.0,   0.00,   0.00,  995.7,   98.6, -999.0
08-03-2023, 00:26:32,    130,    0.0,   -2.1,   0.00,   0.00,  995.7,   98.6, -999.0
08-03-2023, 00:26:42,    130,    0.0,   -2.3,   0.00,   0.00,  995.7,   98.7, -999.0
08-03-2023, 00:26:52,    131,    0.0,   -2.1,   0.00,   0.00,  995.7,   98.6, -999.0
08-03-2023, 00:27:02,    131,    0.0,   -2.1,   0.00,   0.00,  995.7,   98.6, -999.0
08-03-2023, 00:27:12,    131,    0.0,   -2.1,   0.00,   0.00,  995.7,   98.7, -999.0
08-03-2023, 00:27:22,    131,    0.0,   -2.0,   0.00,   0.00,  995.7,   98.6, -999.0
08-03-2023, 00:27:32,    131,    0.0,   -2.1,   0.00,   0.00,  995.7,   98.6, -999.0
08-03-2023, 00:27:42,    131,    0.0,   -2.0,   0.00,   0.00,  995.7,   98.6, -999.0
08-03-2023, 00:27:52,    131,    0.0,   -2.0,   0.00,   0.00,  995.7,   98.6, -999.0
08-03-2023, 00:28:02,    130,    0.0,   -2.0,   0.00,   0.00,  995.7,   98.7, -999.0
08-03-2023, 00:28:12,    131,    0.0,   -2.0,   0.00,   0.00,  995.7,   98.6, -999.0
08-03-2023, 00:28:22,    131,    0.0,   -2.0,   0.00,   0.00,  995.7,   98.6, -999.0
08-03-2023, 00:28:32,    131,    0.0,   -2.0,   0.00,   0.00,  995.7,   98.6, -999.0
08-03-2023, 00:28:42,    131,    0.0,   -1.9,   0.00,   0.00,  995.7,   98.7, -999.0
08-03-2023, 00:28:52,    130,    0.0,   -2.0,   0.00,   0.00,  995.7,   98.7, -999.0
08-03-2023, 00:29:02,    131,    0.0,   -2.0,   0.00,   0.00,  995.7,   98.6, -999.0
08-03-2023, 00:29:12,    130,    0.0,   -2.0,   0.00,   0.00,  995.7,   98.7, -999.0
08-03-2023, 00:29:22,    131,    0.0,   -2.0,   0.00,   0.00,  995.7,   98.6, -999.0
08-03-2023, 00:29:31,    131,    0.0,   -2.0,   0.00,   0.00,  995.7,   98.6, -999.0
08-03-2023, 00:29:42,    131,    0.0,   -2.0,   0.00,   0.00,  995.7,   98.7, -999.0
08-03-2023, 00:29:52,    131,    0.0,   -2.0,   0.00,   0.00,  995.7,   98.6, -999.0
08-03-2023, 00:30:02,    130,    0.0,   -2.0,   0.00,   0.00,  995.7,   98.6, -999.0
08-03-2023, 00:30:11,    131,    0.0,   -2.0,   0.00,   0.00,  995.7,   98.6, -999.0
08-03-2023, 00:30:22,    131,    0.0,   -1.9,   0.00,   0.00,  995.7,   98.6, -999.0
08-03-2023, 00:30:32,    130,    0.0,   -1.9,   0.00,   0.00,  995.7,   98.7, -999.0
08-03-2023, 00:30:41,    131,    0.0,   -1.9,   0.00,   0.00,  995.7,   98.7, -999.0
08-03-2023, 00:30:51,    131,    0.0,   -2.0,   0.00,   0.00,  995.7,   98.6, -999.0
08-03-2023, 00:31:02,    130,    0.0,   -2.0,   0.00,   0.00,  995.7,   98.6, -999.0
08-03-2023, 00:31:12,    131,    0.0,   -1.9,   0.00,   0.00,  995.7,   98.7, -999.0
08-03-2023, 00:31:21,    131,    0.0,   -1.9,   0.00,   0.00,  995.7,   98.7, -999.0
08-03-2023, 00:31:31,    130,    0.0,   -1.9,   0.00,   0.00,  995.7,   98.7, -999.0
08-03-2023, 00:31:42,    131,    0.0,   -1.9,   0.00,   0.00,  995.7,   98.7, -999.0
08-03-2023, 00:31:52,    131,    0.0,   -1.9,   0.00,   0.00,  995.7,   98.6, -999.0
08-03-2023, 00:32:01,    131,    0.0,   -1.9,   0.00,   0.00,  995.6,   98.6, -999.0
08-03-2023, 00:32:12,    130,    0.0,   -1.8,   0.00,   0.00,  995.7,   98.6, -999.0
08-03-2023, 00:32:22,    131,    0.0,   -1.9,   0.00,   0.00,  995.6,   98.6, -999.0
08-03-2023, 00:32:31,    130,    0.0,   -2.0,   0.00,   0.00,  995.6,   98.6, -999.0
08-03-2023, 00:32:41,    130,    0.0,   -1.9,   0.00,   0.00,  995.7,   98.6, -999.0
08-03-2023, 00:32:52,    131,    0.0,   -1.9,   0.00,   0.00,  995.7,   98.6, -999.0
08-03-2023, 00:33:02,    131,    0.0,   -1.9,   0.00,   0.00,  995.6,   98.6, -999.0
08-03-2023, 00:33:11,    131,    0.0,   -1.9,   0.00,   0.00,  995.6,   98.7, -999.0
08-03-2023, 00:33:21,    131,    0.0,   -1.9,   0.00,   0.00,  995.6,   98.6, -999.0
08-03-2023, 00:33:31,    131,    0.0,   -1.9,   0.00,   0.00,  995.6,   98.6, -999.0
08-03-2023, 00:33:41,    131,    0.0,   -1.8,   0.00,   0.00,  995.6,   98.7, -999.0
08-03-2023, 00:33:51,    131,    0.0,   -1.9,   0.00,   0.00,  995.6,   98.6, -999.0
08-03-2023, 00:34:01,    131,    0.0,   -1.8,   0.00,   0.00,  995.6,   98.7, -999.0
08-03-2023, 00:34:12,    130,    0.0,   -1.8,   0.00,   0.00,  995.6,   98.7, -999.0
08-03-2023, 00:34:21,    131,    0.0,   -1.8,   0.00,   0.00,  995.6,   98.7, -999.0
08-03-2023, 00:34:31,    130,    0.0,   -1.8,   0.00,   0.00,  995.6,   98.7, -999.0
08-03-2023, 00:34:41,    130,    0.0,   -1.8,   0.00,   0.00,  995.6,   98.7, -999.0
08-03-2023, 00:34:51,    130,    0.0,   -1.8,   0.00,   0.00,  995.6,   98.7, -999.0
08-03-2023, 00:35:01,    131,    0.0,   -1.8,   0.00,   0.00,  995.6,   98.6, -999.0
08-03-2023, 00:35:11,    131,    0.0,   -1.8,   0.00,   0.00,  995.6,   98.6, -999.0
08-03-2023, 00:35:21,    130,    0.0,   -1.7,   0.00,   0.00,  995.6,   98.6, -999.0
08-03-2023, 00:35:31,    131,    0.0,   -1.6,   0.00,   0.00,  995.6,   25.7, -999.0
08-03-2023, 00:35:41,    131,    0.0,   -1.6,   0.00,   0.00,  995.6,    0.2, -999.0
08-03-2023, 00:35:51,    130,    0.0,   -1.5,   0.00,   0.00,  995.6,    0.1, -999.0
08-03-2023, 00:36:01,    130,    0.0,   -1.6,   0.00,   0.00,  995.6,    0.3, -999.0
08-03-2023, 00:36:11,    131,    0.0,   -1.6,   0.00,   0.00,  995.6,    0.2, -999.0
08-03-2023, 00:36:21,    131,    0.0,   -1.5,   0.00,   0.00,  995.6,    0.1, -999.0
08-03-2023, 00:36:31,    131,    0.0,   -1.6,   0.00,   0.00,  995.6,    0.1, -999.0
08-03-2023, 00:36:41,    130,    0.0,   -1.6,   0.00,   0.00,  995.6,    0.1, -999.0
08-03-2023, 00:36:51,    131,    0.0,   -1.5,   0.00,   0.00,  995.6,    0.1, -999.0
08-03-2023, 00:37:01,    130,    0.0,   -1.5,   0.00,   0.00,  995.6,    0.1, -999.0
08-03-2023, 00:37:11,    130,    0.0,   -1.6,   0.00,   0.00,  995.6,   52.6, -999.0
08-03-2023, 00:37:21,    131,    0.0,   -1.6,   0.00,   0.00,  995.6,   98.6, -999.0
08-03-2023, 00:37:31,    131,    0.0,   -1.6,   0.00,   0.00,  995.6,   98.6, -999.0
08-03-2023, 00:37:41,    131,    0.0,   -1.6,   0.00,   0.00,  995.6,   98.6, -999.0
08-03-2023, 00:37:51,    131,    0.0,   -1.6,   0.00,   0.00,  995.6,   98.6, -999.0
08-03-2023, 00:38:01,    130,    0.0,   -1.6,   0.00,   0.00,  995.6,   98.6, -999.0
08-03-2023, 00:38:11,    131,    0.0,   -1.7,   0.00,   0.00,  995.6,   98.7, -999.0
08-03-2023, 00:38:21,    131,    0.0,   -1.6,   0.00,   0.00,  995.5,   98.7, -999.0
08-03-2023, 00:38:31,    131,    0.0,   -1.7,   0.00,   0.00,  995.6,   98.6, -999.0
08-03-2023, 00:38:41,    131,    0.0,   -1.6,   0.00,   0.00,  995.6,   98.7, -999.0
08-03-2023, 00:38:51,    131,    0.0,   -1.6,   0.00,   0.00,  995.6,   98.7, -999.0
08-03-2023, 00:39:01,    131,    0.0,   -1.5,   0.00,   0.00,  995.5,   98.6, -999.0
08-03-2023, 00:39:11,    130,    0.0,   -1.5,   0.00,   0.00,  995.5,   98.6, -999.0
08-03-2023, 00:39:21,    130,    0.0,   -1.5,   0.00,   0.00,  995.5,   98.6, -999.0
08-03-2023, 00:39:31,    131,    0.0,   -1.4,   0.00,   0.00,  995.5,   98.6, -999.0
08-03-2023, 00:39:41,    131,    0.0,   -1.4,   0.00,   0.00,  995.5,   98.7, -999.0
08-03-2023, 00:39:51,    131,    0.0,   -1.4,   0.00,   0.00,  995.5,   98.6, -999.0
08-03-2023, 00:40:01,    130,    0.1,   -1.3,   0.00,   0.00,  995.6,   99.0, -999.0
08-03-2023, 00:40:11,    130,    0.0,   -1.3,   0.00,   0.00,  995.5,   98.6, -999.0
08-03-2023, 00:40:21,    130,    0.0,   -1.2,   0.00,   0.00,  995.5,   98.6, -999.0
08-03-2023, 00:40:31,    131,    0.0,   -1.2,   0.00,   0.00,  995.5,   98.6, -999.0
08-03-2023, 00:40:41,    131,    0.0,   -1.3,   0.00,   0.00,  995.5,   98.7, -999.0
08-03-2023, 00:40:51,    130,    0.0,   -1.4,   0.00,   0.00,  995.5,   98.7, -999.0
08-03-2023, 00:41:01,    130,    0.0,   -1.3,   0.00,   0.00,  995.5,   98.6, -999.0
08-03-2023, 00:41:10,    130,    0.0,   -1.4,   0.00,   0.00,  995.5,   98.7, -999.0
08-03-2023, 00:41:21,    130,    0.0,   -1.3,   0.00,   0.00,  995.5,   98.7, -999.0
08-03-2023, 00:41:31,    131,    0.0,   -1.2,   0.00,   0.00,  995.5,   98.7, -999.0
08-03-2023, 00:41:41,    130,    0.0,   -1.2,   0.00,   0.00,  995.5,   98.6, -999.0
08-03-2023, 00:41:50,    130,    0.0,   -1.2,   0.00,   0.00,  995.5,   98.6, -999.0
08-03-2023, 00:42:01,    130,    0.0,   -1.2,   0.00,   0.00,  995.5,   98.6, -999.0
08-03-2023, 00:42:11,    130,    0.0,   -1.2,   0.00,   0.00,  995.5,   98.6, -999.0
08-03-2023, 00:42:20,    129,    0.0,   -1.3,   0.00,   0.00,  995.5,   97.8, -999.0
08-03-2023, 00:42:31,    131,    0.0,   -1.3,   0.00,   0.00,  995.5,   96.2, -999.0
08-03-2023, 00:42:41,    130,    0.0,   -1.2,   0.00,   0.00,  995.4,   95.7, -999.0
08-03-2023, 00:42:51,    130,    0.0,   -1.1,   0.00,   0.00,  995.5,   95.7, -999.0
08-03-2023, 00:43:00,    130,    0.0,   -1.1,   0.00,   0.00,  995.4,   95.4, -999.0
08-03-2023, 00:43:11,    130,    0.0,   -1.0,   0.00,   0.00,  995.5,   95.5, -999.0
08-03-2023, 00:43:21,    130,    0.0,   -0.9,   0.00,   0.00,  995.5,   96.4, -999.0
08-03-2023, 00:43:30,    130,    0.0,   -1.0,   0.00,   0.00,  995.5,   97.0, -999.0
08-03-2023, 00:43:40,    130,    0.0,   -0.8,   0.00,   0.00,  995.5,   97.1, -999.0
08-03-2023, 00:43:51,    130,    0.0,   -0.8,   0.00,   0.00,  995.5,   95.8, -999.0
08-03-2023, 00:44:01,    130,    0.0,   -0.8,   0.00,   0.00,  995.4,   93.9, -999.0
08-03-2023, 00:44:10,    130,    0.0,   -0.8,   0.00,   0.00,  995.5,   92.9, -999.0
08-03-2023, 00:44:20,    130,    0.0,   -0.8,   0.00,   0.00,  995.5,   91.6, -999.0
08-03-2023, 00:44:31,    130,    0.0,   -0.7,   0.00,   0.00,  995.4,   90.8, -999.0
08-03-2023, 00:44:40,    130,    0.0,   -0.8,   0.00,   0.00,  995.5,   89.7, -999.0
08-03-2023, 00:44:50,    130,    0.0,   -0.8,   0.00,   0.00,  995.4,   88.3, -999.0
08-03-2023, 00:45:00,    131,    0.0,   -0.8,   0.00,   0.00,  995.5,   87.3, -999.0
08-03-2023, 00:45:11,    131,    0.0,   -0.8,   0.00,   0.00,  995.4,   86.8, -999.0
08-03-2023, 00:45:20,    130,    0.0,   -0.8,   0.00,   0.00,  995.4,   86.6, -999.0
08-03-2023, 00:45:30,    130,    0.0,   -0.8,   0.00,   0.00,  995.4,   86.4, -999.0
08-03-2023, 00:45:41,    130,    0.0,   -0.8,   0.00,   0.00,  995.4,   86.2, -999.0
08-03-2023, 00:45:50,    132,    0.0,   -0.7,   0.00,   0.00,  995.4,   86.3, -999.0
08-03-2023, 00:46:00,    130,    0.0,   -0.7,   0.00,   0.00,  995.4,   86.2, -999.0
08-03-2023, 00:46:10,    131,    0.0,   -0.7,   0.00,   0.00,  995.4,   86.2, -999.0
08-03-2023, 00:46:21,    130,    0.0,   -0.8,   0.00,   0.00,  995.4,   86.0, -999.0
08-03-2023, 00:46:30,    131,    0.0,   -0.8,   0.00,   0.00,  995.4,   85.6, -999.0
08-03-2023, 00:46:40,    131,    0.0,   -0.7,   0.00,   0.00,  995.4,   85.2, -999.0
08-03-2023, 00:46:50,    131,    0.0,   -0.8,   0.00,   0.00,  995.4,   85.0, -999.0